Year,Month,Day,Hour,Minute,Value (Times are PST for temperature in C)
2009,09,15,00,00,13.60
2009,09,15,00,01,13.60
2009,09,15,00,02,13.60
2009,09,15,00,03,13.60
2009,09,15,00,04,13.60
2009,09,15,00,05,13.60
2009,09,15,00,06,13.60
2009,09,15,00,07,13.60
2009,09,15,00,08,13.70
2009,09,15,00,09,13.60
2009,09,15,00,10,13.60
2009,09,15,00,11,13.60
2009,09,15,00,12,13.60
2009,09,15,00,13,13.60
2009,09,15,00,14,13.60
2009,09,15,00,15,13.60
2009,09,15,00,16,13.60
2009,09,15,00,17,13.60
2009,09,15,00,18,13.60
2009,09,15,00,19,13.60
2009,09,15,00,20,13.60
2009,09,15,00,21,13.60
2009,09,15,00,22,13.60
2009,09,15,00,23,13.60
2009,09,15,00,24,13.60
2009,09,15,00,25,13.50
2009,09,15,00,26,13.50
2009,09,15,00,27,13.50
2009,09,15,00,28,13.50
2009,09,15,00,29,13.40
2009,09,15,00,30,13.40
2009,09,15,00,31,13.40
2009,09,15,00,32,13.40
2009,09,15,00,33,13.40
2009,09,15,00,34,13.40
2009,09,15,00,35,13.40
2009,09,15,00,36,13.40
2009,09,15,00,37,13.40
2009,09,15,00,38,13.40
2009,09,15,00,39,13.40
2009,09,15,00,40,13.40
2009,09,15,00,41,13.40
2009,09,15,00,42,13.40
2009,09,15,00,43,13.40
2009,09,15,00,44,13.40
2009,09,15,00,45,13.50
2009,09,15,00,46,13.50
2009,09,15,00,47,13.50
2009,09,15,00,48,13.50
2009,09,15,00,49,13.50
2009,09,15,00,50,13.50
2009,09,15,00,51,13.50
2009,09,15,00,52,13.40
2009,09,15,00,53,13.40
2009,09,15,00,54,13.40
2009,09,15,00,55,13.40
2009,09,15,00,56,13.40
2009,09,15,00,57,13.40
2009,09,15,00,58,13.40
2009,09,15,00,59,13.40
2009,09,15,01,00,13.30
2009,09,15,01,01,13.30
2009,09,15,01,02,13.30
2009,09,15,01,03,13.30
2009,09,15,01,04,13.30
2009,09,15,01,05,13.30
2009,09,15,01,06,13.30
2009,09,15,01,07,13.30
2009,09,15,01,08,13.30
2009,09,15,01,09,13.30
2009,09,15,01,10,13.30
2009,09,15,01,11,13.30
2009,09,15,01,12,13.30
2009,09,15,01,13,13.30
2009,09,15,01,14,13.30
2009,09,15,01,15,13.30
2009,09,15,01,16,13.30
2009,09,15,01,17,13.30
2009,09,15,01,18,13.30
2009,09,15,01,19,13.30
2009,09,15,01,20,13.30
2009,09,15,01,21,13.20
2009,09,15,01,22,13.20
2009,09,15,01,23,13.20
2009,09,15,01,24,13.10
2009,09,15,01,25,13.10
2009,09,15,01,26,13.10
2009,09,15,01,27,13.10
2009,09,15,01,28,13.00
2009,09,15,01,29,13.00
2009,09,15,01,30,13.00
2009,09,15,01,31,13.00
2009,09,15,01,32,13.00
2009,09,15,01,33,13.00
2009,09,15,01,34,13.00
2009,09,15,01,35,12.90
2009,09,15,01,36,12.90
2009,09,15,01,37,12.90
2009,09,15,01,38,12.90
2009,09,15,01,39,12.90
2009,09,15,01,40,12.90
2009,09,15,01,41,12.90
2009,09,15,01,42,12.90
2009,09,15,01,43,12.90
2009,09,15,01,44,12.90
2009,09,15,01,45,12.90
2009,09,15,01,46,12.90
2009,09,15,01,47,12.90
2009,09,15,01,48,12.90
2009,09,15,01,49,12.90
2009,09,15,01,50,12.90
2009,09,15,01,51,12.90
2009,09,15,01,52,12.90
2009,09,15,01,53,12.90
2009,09,15,01,54,12.90
2009,09,15,01,55,12.90
2009,09,15,01,56,12.90
2009,09,15,01,57,12.90
2009,09,15,01,58,12.90
2009,09,15,01,59,12.90
2009,09,15,02,00,12.90
2009,09,15,02,01,12.90
2009,09,15,02,02,12.90
2009,09,15,02,03,12.90
2009,09,15,02,04,12.90
2009,09,15,02,05,12.90
2009,09,15,02,06,12.90
2009,09,15,02,07,12.80
2009,09,15,02,08,12.80
2009,09,15,02,09,12.80
2009,09,15,02,10,12.80
2009,09,15,02,11,12.80
2009,09,15,02,12,12.80
2009,09,15,02,13,12.80
2009,09,15,02,14,12.80
2009,09,15,02,15,12.80
2009,09,15,02,16,12.80
2009,09,15,02,17,12.80
2009,09,15,02,18,12.80
2009,09,15,02,19,12.80
2009,09,15,02,20,12.80
2009,09,15,02,21,12.80
2009,09,15,02,22,12.80
2009,09,15,02,23,12.80
2009,09,15,02,24,12.80
2009,09,15,02,25,12.80
2009,09,15,02,26,12.80
2009,09,15,02,27,12.80
2009,09,15,02,28,12.80
2009,09,15,02,29,12.80
2009,09,15,02,30,12.80
2009,09,15,02,31,12.80
2009,09,15,02,32,12.80
2009,09,15,02,33,12.80
2009,09,15,02,34,12.80
2009,09,15,02,35,12.80
2009,09,15,02,36,12.80
2009,09,15,02,37,12.80
2009,09,15,02,38,12.80
2009,09,15,02,39,12.80
2009,09,15,02,40,12.80
2009,09,15,02,41,12.80
2009,09,15,02,42,12.80
2009,09,15,02,43,12.80
2009,09,15,02,44,12.80
2009,09,15,02,45,12.80
2009,09,15,02,46,12.80
2009,09,15,02,47,12.80
2009,09,15,02,48,12.80
2009,09,15,02,49,12.80
2009,09,15,02,50,12.80
2009,09,15,02,51,12.80
2009,09,15,02,52,12.80
2009,09,15,02,53,12.80
2009,09,15,02,54,12.80
2009,09,15,02,55,12.80
2009,09,15,02,56,12.80
2009,09,15,02,57,12.80
2009,09,15,02,58,12.80
2009,09,15,02,59,12.80
2009,09,15,03,00,12.80
2009,09,15,03,01,12.70
2009,09,15,03,02,12.70
2009,09,15,03,03,12.70
2009,09,15,03,04,12.70
2009,09,15,03,05,12.70
2009,09,15,03,06,12.70
2009,09,15,03,07,12.70
2009,09,15,03,08,12.60
2009,09,15,03,09,12.60
2009,09,15,03,10,12.60
2009,09,15,03,11,12.60
2009,09,15,03,12,12.60
2009,09,15,03,13,12.60
2009,09,15,03,14,12.60
2009,09,15,03,15,12.60
2009,09,15,03,16,12.60
2009,09,15,03,17,12.60
2009,09,15,03,18,12.60
2009,09,15,03,19,12.60
2009,09,15,03,20,12.60
2009,09,15,03,21,12.60
2009,09,15,03,22,12.60
2009,09,15,03,23,12.60
2009,09,15,03,24,12.60
2009,09,15,03,25,12.60
2009,09,15,03,26,12.60
2009,09,15,03,27,12.60
2009,09,15,03,28,12.60
2009,09,15,03,29,12.60
2009,09,15,03,30,12.60
2009,09,15,03,31,12.60
2009,09,15,03,32,12.60
2009,09,15,03,33,12.60
2009,09,15,03,34,12.60
2009,09,15,03,35,12.60
2009,09,15,03,36,12.60
2009,09,15,03,37,12.60
2009,09,15,03,38,12.60
2009,09,15,03,39,12.60
2009,09,15,03,40,12.60
2009,09,15,03,41,12.60
2009,09,15,03,42,12.60
2009,09,15,03,43,12.60
2009,09,15,03,44,12.60
2009,09,15,03,45,12.60
2009,09,15,03,46,12.60
2009,09,15,03,47,12.60
2009,09,15,03,48,12.60
2009,09,15,03,49,12.60
2009,09,15,03,50,12.60
2009,09,15,03,51,12.50
2009,09,15,03,52,12.50
2009,09,15,03,53,12.50
2009,09,15,03,54,12.50
2009,09,15,03,55,12.50
2009,09,15,03,56,12.50
2009,09,15,03,57,12.50
2009,09,15,03,58,12.50
2009,09,15,03,59,12.50
2009,09,15,04,00,12.50
2009,09,15,04,01,12.50
2009,09,15,04,02,12.50
2009,09,15,04,03,12.50
2009,09,15,04,04,12.50
2009,09,15,04,05,12.50
2009,09,15,04,06,12.60
2009,09,15,04,07,12.60
2009,09,15,04,08,12.60
2009,09,15,04,09,12.60
2009,09,15,04,10,12.60
2009,09,15,04,11,12.60
2009,09,15,04,12,12.60
2009,09,15,04,13,12.60
2009,09,15,04,14,12.60
2009,09,15,04,15,12.60
2009,09,15,04,16,12.50
2009,09,15,04,17,12.50
2009,09,15,04,18,12.50
2009,09,15,04,19,12.50
2009,09,15,04,20,12.50
2009,09,15,04,21,12.60
2009,09,15,04,22,12.60
2009,09,15,04,23,12.60
2009,09,15,04,24,12.60
2009,09,15,04,25,12.60
2009,09,15,04,26,12.60
2009,09,15,04,27,12.60
2009,09,15,04,28,12.60
2009,09,15,04,29,12.60
2009,09,15,04,30,12.60
2009,09,15,04,31,12.60
2009,09,15,04,32,12.60
2009,09,15,04,33,12.60
2009,09,15,04,34,12.60
2009,09,15,04,35,12.60
2009,09,15,04,36,12.60
2009,09,15,04,37,12.60
2009,09,15,04,38,12.60
2009,09,15,04,39,12.60
2009,09,15,04,40,12.60
2009,09,15,04,41,12.60
2009,09,15,04,42,12.50
2009,09,15,04,43,12.50
2009,09,15,04,44,12.50
2009,09,15,04,45,12.50
2009,09,15,04,46,12.50
2009,09,15,04,47,12.60
2009,09,15,04,48,12.60
2009,09,15,04,49,12.60
2009,09,15,04,50,12.50
2009,09,15,04,51,12.50
2009,09,15,04,52,12.50
2009,09,15,04,53,12.50
2009,09,15,04,54,12.50
2009,09,15,04,55,12.50
2009,09,15,04,56,12.50
2009,09,15,04,57,12.50
2009,09,15,04,58,12.50
2009,09,15,04,59,12.60
2009,09,15,05,00,12.60
2009,09,15,05,01,12.60
2009,09,15,05,02,12.60
2009,09,15,05,03,12.60
2009,09,15,05,04,12.70
2009,09,15,05,05,12.70
2009,09,15,05,06,12.70
2009,09,15,05,07,12.70
2009,09,15,05,08,12.80
2009,09,15,05,09,12.80
2009,09,15,05,10,12.80
2009,09,15,05,11,12.80
2009,09,15,05,12,12.80
2009,09,15,05,13,12.80
2009,09,15,05,14,12.80
2009,09,15,05,15,12.80
2009,09,15,05,16,12.80
2009,09,15,05,17,12.80
2009,09,15,05,18,12.80
2009,09,15,05,19,12.80
2009,09,15,05,20,12.80
2009,09,15,05,21,12.80
2009,09,15,05,22,12.90
2009,09,15,05,23,12.90
2009,09,15,05,24,12.90
2009,09,15,05,25,12.90
2009,09,15,05,26,12.90
2009,09,15,05,27,12.90
2009,09,15,05,28,13.00
2009,09,15,05,29,13.00
2009,09,15,05,30,13.00
2009,09,15,05,31,13.00
2009,09,15,05,32,13.10
2009,09,15,05,33,13.10
2009,09,15,05,34,13.10
2009,09,15,05,35,13.10
2009,09,15,05,36,13.20
2009,09,15,05,37,13.20
2009,09,15,05,38,13.20
2009,09,15,05,39,13.20
2009,09,15,05,40,13.20
2009,09,15,05,41,13.30
2009,09,15,05,42,13.30
2009,09,15,05,43,13.30
2009,09,15,05,44,13.30
2009,09,15,05,45,13.30
2009,09,15,05,46,13.30
2009,09,15,05,47,13.30
2009,09,15,05,48,13.30
2009,09,15,05,49,13.30
2009,09,15,05,50,13.30
2009,09,15,05,51,13.30
2009,09,15,05,52,13.30
2009,09,15,05,53,13.30
2009,09,15,05,54,13.30
2009,09,15,05,55,13.30
2009,09,15,05,56,13.30
2009,09,15,05,57,13.20
2009,09,15,05,58,13.20
2009,09,15,05,59,13.30
2009,09,15,06,00,13.30
2009,09,15,06,01,13.30
2009,09,15,06,02,13.30
2009,09,15,06,03,13.20
2009,09,15,06,04,13.20
2009,09,15,06,05,13.20
2009,09,15,06,06,13.20
2009,09,15,06,07,13.20
2009,09,15,06,08,13.20
2009,09,15,06,09,13.20
2009,09,15,06,10,13.20
2009,09,15,06,11,13.20
2009,09,15,06,12,13.20
2009,09,15,06,13,13.20
2009,09,15,06,14,13.20
2009,09,15,06,15,13.20
2009,09,15,06,16,13.20
2009,09,15,06,17,13.20
2009,09,15,06,18,13.20
2009,09,15,06,19,13.20
2009,09,15,06,20,13.20
2009,09,15,06,21,13.20
2009,09,15,06,22,13.20
2009,09,15,06,23,13.20
2009,09,15,06,24,13.10
2009,09,15,06,25,13.10
2009,09,15,06,26,13.10
2009,09,15,06,27,13.10
2009,09,15,06,28,13.10
2009,09,15,06,29,13.10
2009,09,15,06,30,13.10
2009,09,15,06,31,13.10
2009,09,15,06,32,13.10
2009,09,15,06,33,13.10
2009,09,15,06,34,13.10
2009,09,15,06,35,13.10
2009,09,15,06,36,13.10
2009,09,15,06,37,13.10
2009,09,15,06,38,13.00
2009,09,15,06,39,13.00
2009,09,15,06,40,13.00
2009,09,15,06,41,13.00
2009,09,15,06,42,13.00
2009,09,15,06,43,13.00
2009,09,15,06,44,13.00
2009,09,15,06,45,13.00
2009,09,15,06,46,13.00
2009,09,15,06,47,13.00
2009,09,15,06,48,13.00
2009,09,15,06,49,13.00
2009,09,15,06,50,13.00
2009,09,15,06,51,13.00
2009,09,15,06,52,13.00
2009,09,15,06,53,13.00
2009,09,15,06,54,13.00
2009,09,15,06,55,13.00
2009,09,15,06,56,13.00
2009,09,15,06,57,13.00
2009,09,15,06,58,13.00
2009,09,15,06,59,13.00
2009,09,15,07,00,13.00
2009,09,15,07,01,13.00
2009,09,15,07,02,13.00
2009,09,15,07,03,13.00
2009,09,15,07,04,13.00
2009,09,15,07,05,13.00
2009,09,15,07,06,13.10
2009,09,15,07,07,13.10
2009,09,15,07,08,13.10
2009,09,15,07,09,13.10
2009,09,15,07,10,13.20
2009,09,15,07,11,13.20
2009,09,15,07,12,13.20
2009,09,15,07,13,13.20
2009,09,15,07,14,13.30
2009,09,15,07,15,13.30
2009,09,15,07,16,13.30
2009,09,15,07,17,13.30
2009,09,15,07,18,13.30
2009,09,15,07,19,13.30
2009,09,15,07,20,13.30
2009,09,15,07,21,13.30
2009,09,15,07,22,13.30
2009,09,15,07,23,13.30
2009,09,15,07,24,13.30
2009,09,15,07,25,13.30
2009,09,15,07,26,13.30
2009,09,15,07,27,13.30
2009,09,15,07,28,13.30
2009,09,15,07,29,13.30
2009,09,15,07,30,13.30
2009,09,15,07,31,13.30
2009,09,15,07,32,13.30
2009,09,15,07,33,13.30
2009,09,15,07,34,13.30
2009,09,15,07,35,13.30
2009,09,15,07,36,13.30
2009,09,15,07,37,13.30
2009,09,15,07,38,13.30
2009,09,15,07,39,13.40
2009,09,15,07,40,13.40
2009,09,15,07,41,13.40
2009,09,15,07,42,13.40
2009,09,15,07,43,13.40
2009,09,15,07,44,13.40
2009,09,15,07,45,13.50
2009,09,15,07,46,13.50
2009,09,15,07,47,13.50
2009,09,15,07,48,13.50
2009,09,15,07,49,13.50
2009,09,15,07,50,13.50
2009,09,15,07,51,13.50
2009,09,15,07,52,13.50
2009,09,15,07,53,13.60
2009,09,15,07,54,13.60
2009,09,15,07,55,13.60
2009,09,15,07,56,13.60
2009,09,15,07,57,13.60
2009,09,15,07,58,13.60
2009,09,15,07,59,13.60
2009,09,15,08,00,13.60
2009,09,15,08,01,13.70
2009,09,15,08,02,13.70
2009,09,15,08,03,13.70
2009,09,15,08,04,13.70
2009,09,15,08,05,13.70
2009,09,15,08,06,13.70
2009,09,15,08,07,13.70
2009,09,15,08,08,13.70
2009,09,15,08,09,13.70
2009,09,15,08,10,13.70
2009,09,15,08,11,13.70
2009,09,15,08,12,13.70
2009,09,15,08,13,13.70
2009,09,15,08,14,13.70
2009,09,15,08,15,13.80
2009,09,15,08,16,13.80
2009,09,15,08,17,13.90
2009,09,15,08,18,13.90
2009,09,15,08,19,14.00
2009,09,15,08,20,14.00
2009,09,15,08,21,14.10
2009,09,15,08,22,14.10
2009,09,15,08,23,14.10
2009,09,15,08,24,14.20
2009,09,15,08,25,14.20
2009,09,15,08,26,14.20
2009,09,15,08,27,14.20
2009,09,15,08,28,14.20
2009,09,15,08,29,14.20
2009,09,15,08,30,14.20
2009,09,15,08,31,14.20
2009,09,15,08,32,14.20
2009,09,15,08,33,14.20
2009,09,15,08,34,14.30
2009,09,15,08,35,14.30
2009,09,15,08,36,14.30
2009,09,15,08,37,14.30
2009,09,15,08,38,14.30
2009,09,15,08,39,14.40
2009,09,15,08,40,14.40
2009,09,15,08,41,14.40
2009,09,15,08,42,14.40
2009,09,15,08,43,14.50
2009,09,15,08,44,14.50
2009,09,15,08,45,14.50
2009,09,15,08,46,14.50
2009,09,15,08,47,14.50
2009,09,15,08,48,14.50
2009,09,15,08,49,14.60
2009,09,15,08,50,14.60
2009,09,15,08,51,14.60
2009,09,15,08,52,14.60
2009,09,15,08,53,14.60
2009,09,15,08,54,14.60
2009,09,15,08,55,14.70
2009,09,15,08,56,14.70
2009,09,15,08,57,14.70
2009,09,15,08,58,14.70
2009,09,15,08,59,14.70
2009,09,15,09,00,14.80
2009,09,15,09,01,14.80
2009,09,15,09,02,14.80
2009,09,15,09,03,14.80
2009,09,15,09,04,14.80
2009,09,15,09,05,14.80
2009,09,15,09,06,14.90
2009,09,15,09,07,14.90
2009,09,15,09,08,14.90
2009,09,15,09,09,15.00
2009,09,15,09,10,15.00
2009,09,15,09,11,15.00
2009,09,15,09,12,15.00
2009,09,15,09,13,15.00
2009,09,15,09,14,15.10
2009,09,15,09,15,15.10
2009,09,15,09,16,15.10
2009,09,15,09,17,15.10
2009,09,15,09,18,15.10
2009,09,15,09,19,15.10
2009,09,15,09,20,15.20
2009,09,15,09,21,15.20
2009,09,15,09,22,15.20
2009,09,15,09,23,15.20
2009,09,15,09,24,15.30
2009,09,15,09,25,15.30
2009,09,15,09,26,15.30
2009,09,15,09,27,15.30
2009,09,15,09,28,15.30
2009,09,15,09,29,15.30
2009,09,15,09,30,15.40
2009,09,15,09,31,15.40
2009,09,15,09,32,15.50
2009,09,15,09,33,15.50
2009,09,15,09,34,15.50
2009,09,15,09,35,15.50
2009,09,15,09,36,15.60
2009,09,15,09,37,15.60
2009,09,15,09,38,15.70
2009,09,15,09,39,15.70
2009,09,15,09,40,15.80
2009,09,15,09,41,15.80
2009,09,15,09,42,15.90
2009,09,15,09,43,16.00
2009,09,15,09,44,16.10
2009,09,15,09,45,16.10
2009,09,15,09,46,16.10
2009,09,15,09,47,16.10
2009,09,15,09,48,16.10
2009,09,15,09,49,16.10
2009,09,15,09,50,16.10
2009,09,15,09,51,16.10
2009,09,15,09,52,16.10
2009,09,15,09,53,16.10
2009,09,15,09,54,16.10
2009,09,15,09,55,16.10
2009,09,15,09,56,16.10
2009,09,15,09,57,16.10
2009,09,15,09,58,16.10
2009,09,15,09,59,16.10
2009,09,15,10,00,16.10
2009,09,15,10,01,16.10
2009,09,15,10,02,16.10
2009,09,15,10,03,16.10
2009,09,15,10,04,16.10
2009,09,15,10,05,16.10
2009,09,15,10,06,16.10
2009,09,15,10,07,16.10
2009,09,15,10,08,16.10
2009,09,15,10,09,16.20
2009,09,15,10,10,16.20
2009,09,15,10,11,16.30
2009,09,15,10,12,16.30
2009,09,15,10,13,16.40
2009,09,15,10,14,16.40
2009,09,15,10,15,16.40
2009,09,15,10,16,16.40
2009,09,15,10,17,16.60
2009,09,15,10,18,16.60
2009,09,15,10,19,16.60
2009,09,15,10,20,16.60
2009,09,15,10,21,16.60
2009,09,15,10,22,16.60
2009,09,15,10,23,16.50
2009,09,15,10,24,16.40
2009,09,15,10,25,16.40
2009,09,15,10,26,16.40
2009,09,15,10,27,16.40
2009,09,15,10,28,16.40
2009,09,15,10,29,16.40
2009,09,15,10,30,16.40
2009,09,15,10,31,16.40
2009,09,15,10,32,16.40
2009,09,15,10,33,16.40
2009,09,15,10,34,16.40
2009,09,15,10,35,16.40
2009,09,15,10,36,16.40
2009,09,15,10,37,16.40
2009,09,15,10,38,16.40
2009,09,15,10,39,16.40
2009,09,15,10,40,16.40
2009,09,15,10,41,16.40
2009,09,15,10,42,16.40
2009,09,15,10,43,16.40
2009,09,15,10,44,16.40
2009,09,15,10,45,16.40
2009,09,15,10,46,16.40
2009,09,15,10,47,16.40
2009,09,15,10,48,16.40
2009,09,15,10,49,16.40
2009,09,15,10,50,16.40
2009,09,15,10,51,16.40
2009,09,15,10,52,16.30
2009,09,15,10,53,16.30
2009,09,15,10,54,16.30
2009,09,15,10,55,16.40
2009,09,15,10,56,16.40
2009,09,15,10,57,16.40
2009,09,15,10,58,16.40
2009,09,15,10,59,16.40
2009,09,15,11,00,16.40
2009,09,15,11,01,16.40
2009,09,15,11,02,16.40
2009,09,15,11,03,16.40
2009,09,15,11,04,16.40
2009,09,15,11,05,16.40
2009,09,15,11,06,16.40
2009,09,15,11,07,16.50
2009,09,15,11,08,16.60
2009,09,15,11,09,16.60
2009,09,15,11,10,16.70
2009,09,15,11,11,16.70
2009,09,15,11,12,16.70
2009,09,15,11,13,16.70
2009,09,15,11,14,16.70
2009,09,15,11,15,16.80
2009,09,15,11,16,16.80
2009,09,15,11,17,16.80
2009,09,15,11,18,16.90
2009,09,15,11,19,16.90
2009,09,15,11,20,16.90
2009,09,15,11,21,16.90
2009,09,15,11,22,16.90
2009,09,15,11,23,16.90
2009,09,15,11,24,17.00
2009,09,15,11,25,17.00
2009,09,15,11,26,17.00
2009,09,15,11,27,17.00
2009,09,15,11,28,17.10
2009,09,15,11,29,17.10
2009,09,15,11,30,17.10
2009,09,15,11,31,17.20
2009,09,15,11,32,17.20
2009,09,15,11,33,17.30
2009,09,15,11,34,17.30
2009,09,15,11,35,17.40
2009,09,15,11,36,17.50
2009,09,15,11,37,17.60
2009,09,15,11,38,17.70
2009,09,15,11,39,17.70
2009,09,15,11,40,17.80
2009,09,15,11,41,17.80
2009,09,15,11,42,17.80
2009,09,15,11,43,17.80
2009,09,15,11,44,17.80
2009,09,15,11,45,17.80
2009,09,15,11,46,17.80
2009,09,15,11,47,17.80
2009,09,15,11,48,17.70
2009,09,15,11,49,17.70
2009,09,15,11,50,17.70
2009,09,15,11,51,17.70
2009,09,15,11,52,17.80
2009,09,15,11,53,17.80
2009,09,15,11,54,17.70
2009,09,15,11,55,17.70
2009,09,15,11,56,17.70
2009,09,15,11,57,17.80
2009,09,15,11,58,17.90
2009,09,15,11,59,18.00
2009,09,15,12,00,18.10
2009,09,15,12,01,18.20
2009,09,15,12,02,18.30
2009,09,15,12,03,18.40
2009,09,15,12,04,18.40
2009,09,15,12,05,18.40
2009,09,15,12,06,18.40
2009,09,15,12,07,18.40
2009,09,15,12,08,18.40
2009,09,15,12,09,18.40
2009,09,15,12,10,18.40
2009,09,15,12,11,18.40
2009,09,15,12,12,18.40
2009,09,15,12,13,18.40
2009,09,15,12,14,18.50
2009,09,15,12,15,18.50
2009,09,15,12,16,18.40
2009,09,15,12,17,18.30
2009,09,15,12,18,18.40
2009,09,15,12,19,18.40
2009,09,15,12,20,18.40
2009,09,15,12,21,18.50
2009,09,15,12,22,18.50
2009,09,15,12,23,18.60
2009,09,15,12,24,18.60
2009,09,15,12,25,18.60
2009,09,15,12,26,18.60
2009,09,15,12,27,18.60
2009,09,15,12,28,18.60
2009,09,15,12,29,18.70
2009,09,15,12,30,18.70
2009,09,15,12,31,18.80
2009,09,15,12,32,18.80
2009,09,15,12,33,18.80
2009,09,15,12,34,18.80
2009,09,15,12,35,18.90
2009,09,15,12,36,18.90
2009,09,15,12,37,18.90
2009,09,15,12,38,18.90
2009,09,15,12,39,18.90
2009,09,15,12,40,18.90
2009,09,15,12,41,18.90
2009,09,15,12,42,18.90
2009,09,15,12,43,18.90
2009,09,15,12,44,18.90
2009,09,15,12,45,19.00
2009,09,15,12,46,19.10
2009,09,15,12,47,19.10
2009,09,15,12,48,19.10
2009,09,15,12,49,19.10
2009,09,15,12,50,19.10
2009,09,15,12,51,19.10
2009,09,15,12,52,19.10
2009,09,15,12,53,19.20
2009,09,15,12,54,19.30
2009,09,15,12,55,19.40
2009,09,15,12,56,19.60
2009,09,15,12,57,19.70
2009,09,15,12,58,19.70
2009,09,15,12,59,19.70
2009,09,15,13,00,19.80
2009,09,15,13,01,19.80
2009,09,15,13,02,19.90
2009,09,15,13,03,19.90
2009,09,15,13,04,20.00
2009,09,15,13,05,20.20
2009,09,15,13,06,20.30
2009,09,15,13,07,20.40
2009,09,15,13,08,20.60
2009,09,15,13,09,20.70
2009,09,15,13,10,20.80
2009,09,15,13,11,20.90
2009,09,15,13,12,21.00
2009,09,15,13,13,21.00
2009,09,15,13,14,21.00
2009,09,15,13,15,21.00
2009,09,15,13,16,21.00
2009,09,15,13,17,21.00
2009,09,15,13,18,21.00
2009,09,15,13,19,21.00
2009,09,15,13,20,21.00
2009,09,15,13,21,20.90
2009,09,15,13,22,20.70
2009,09,15,13,23,20.60
2009,09,15,13,24,20.60
2009,09,15,13,25,20.60
2009,09,15,13,26,20.70
2009,09,15,13,27,20.80
2009,09,15,13,28,20.90
2009,09,15,13,29,21.00
2009,09,15,13,30,20.90
2009,09,15,13,31,20.70
2009,09,15,13,32,20.60
2009,09,15,13,33,20.50
2009,09,15,13,34,20.50
2009,09,15,13,35,20.50
2009,09,15,13,36,20.60
2009,09,15,13,37,20.70
2009,09,15,13,38,20.80
2009,09,15,13,39,21.00
2009,09,15,13,40,21.00
2009,09,15,13,41,21.10
2009,09,15,13,42,21.20
2009,09,15,13,43,21.20
2009,09,15,13,44,21.20
2009,09,15,13,45,21.20
2009,09,15,13,46,21.20
2009,09,15,13,47,21.20
2009,09,15,13,48,21.20
2009,09,15,13,49,21.20
2009,09,15,13,50,21.30
2009,09,15,13,51,21.30
2009,09,15,13,52,21.30
2009,09,15,13,53,21.40
2009,09,15,13,54,21.60
2009,09,15,13,55,21.60
2009,09,15,13,56,21.60
2009,09,15,13,57,21.60
2009,09,15,13,58,21.60
2009,09,15,13,59,21.60
2009,09,15,14,00,21.50
2009,09,15,14,01,21.40
2009,09,15,14,02,21.30
2009,09,15,14,03,21.30
2009,09,15,14,04,21.30
2009,09,15,14,05,21.30
2009,09,15,14,06,21.30
2009,09,15,14,07,21.40
2009,09,15,14,08,21.40
2009,09,15,14,09,21.60
2009,09,15,14,10,21.60
2009,09,15,14,11,21.60
2009,09,15,14,12,21.70
2009,09,15,14,13,21.80
2009,09,15,14,14,21.80
2009,09,15,14,15,21.80
2009,09,15,14,16,21.80
2009,09,15,14,17,21.80
2009,09,15,14,18,21.70
2009,09,15,14,19,21.70
2009,09,15,14,20,21.60
2009,09,15,14,21,21.60
2009,09,15,14,22,21.60
2009,09,15,14,23,21.60
2009,09,15,14,24,21.60
2009,09,15,14,25,21.60
2009,09,15,14,26,21.60
2009,09,15,14,27,21.60
2009,09,15,14,28,21.60
2009,09,15,14,29,21.50
2009,09,15,14,30,21.40
2009,09,15,14,31,21.30
2009,09,15,14,32,21.30
2009,09,15,14,33,21.30
2009,09,15,14,34,21.30
2009,09,15,14,35,21.40
2009,09,15,14,36,21.50
2009,09,15,14,37,21.60
2009,09,15,14,38,21.70
2009,09,15,14,39,21.80
2009,09,15,14,40,21.90
2009,09,15,14,41,22.00
2009,09,15,14,42,22.10
2009,09,15,14,43,22.20
2009,09,15,14,44,22.20
2009,09,15,14,45,22.00
2009,09,15,14,46,21.90
2009,09,15,14,47,21.70
2009,09,15,14,48,21.50
2009,09,15,14,49,21.30
2009,09,15,14,50,21.10
2009,09,15,14,51,20.90
2009,09,15,14,52,20.80
2009,09,15,14,53,20.80
2009,09,15,14,54,20.80
2009,09,15,14,55,20.90
2009,09,15,14,56,20.90
2009,09,15,14,57,20.90
2009,09,15,14,58,21.00
2009,09,15,14,59,20.90
2009,09,15,15,00,21.00
2009,09,15,15,01,21.00
2009,09,15,15,02,21.00
2009,09,15,15,03,21.00
2009,09,15,15,04,21.10
2009,09,15,15,05,21.10
2009,09,15,15,06,21.20
2009,09,15,15,07,21.30
2009,09,15,15,08,21.40
2009,09,15,15,09,21.40
2009,09,15,15,10,21.40
2009,09,15,15,11,21.40
2009,09,15,15,12,21.40
2009,09,15,15,13,21.40
2009,09,15,15,14,21.50
2009,09,15,15,15,21.70
2009,09,15,15,16,21.80
2009,09,15,15,17,22.00
2009,09,15,15,18,22.10
2009,09,15,15,19,22.30
2009,09,15,15,20,22.40
2009,09,15,15,21,22.40
2009,09,15,15,22,22.40
2009,09,15,15,23,22.40
2009,09,15,15,24,22.40
2009,09,15,15,25,22.40
2009,09,15,15,26,22.50
2009,09,15,15,27,22.50
2009,09,15,15,28,22.60
2009,09,15,15,29,22.70
2009,09,15,15,30,22.80
2009,09,15,15,31,22.80
2009,09,15,15,32,22.90
2009,09,15,15,33,22.90
2009,09,15,15,34,22.90
2009,09,15,15,35,22.90
2009,09,15,15,36,22.90
2009,09,15,15,37,22.90
2009,09,15,15,38,22.80
2009,09,15,15,39,22.80
2009,09,15,15,40,22.80
2009,09,15,15,41,22.80
2009,09,15,15,42,22.90
2009,09,15,15,43,22.90
2009,09,15,15,44,22.90
2009,09,15,15,45,22.80
2009,09,15,15,46,22.60
2009,09,15,15,47,22.30
2009,09,15,15,48,22.10
2009,09,15,15,49,22.00
2009,09,15,15,50,21.90
2009,09,15,15,51,21.70
2009,09,15,15,52,21.60
2009,09,15,15,53,21.60
2009,09,15,15,54,21.60
2009,09,15,15,55,21.70
2009,09,15,15,56,21.60
2009,09,15,15,57,21.60
2009,09,15,15,58,21.60
2009,09,15,15,59,21.60
2009,09,15,16,00,21.60
2009,09,15,16,01,21.70
2009,09,15,16,02,21.90
2009,09,15,16,03,22.00
2009,09,15,16,04,22.00
2009,09,15,16,05,22.20
2009,09,15,16,06,22.20
2009,09,15,16,07,22.30
2009,09,15,16,08,22.30
2009,09,15,16,09,22.50
2009,09,15,16,10,22.60
2009,09,15,16,11,22.60
2009,09,15,16,12,22.70
2009,09,15,16,13,22.80
2009,09,15,16,14,22.90
2009,09,15,16,15,23.00
2009,09,15,16,16,23.10
2009,09,15,16,17,23.10
2009,09,15,16,18,23.20
2009,09,15,16,19,23.30
2009,09,15,16,20,23.40
2009,09,15,16,21,23.50
2009,09,15,16,22,23.70
2009,09,15,16,23,23.70
2009,09,15,16,24,23.70
2009,09,15,16,25,23.70
2009,09,15,16,26,23.70
2009,09,15,16,27,23.50
2009,09,15,16,28,23.40
2009,09,15,16,29,23.40
2009,09,15,16,30,23.40
2009,09,15,16,31,23.30
2009,09,15,16,32,23.30
2009,09,15,16,33,23.30
2009,09,15,16,34,23.30
2009,09,15,16,35,23.40
2009,09,15,16,36,23.40
2009,09,15,16,37,23.60
2009,09,15,16,38,23.60
2009,09,15,16,39,23.60
2009,09,15,16,40,23.60
2009,09,15,16,41,23.60
2009,09,15,16,42,23.60
2009,09,15,16,43,23.70
2009,09,15,16,44,23.70
2009,09,15,16,45,23.70
2009,09,15,16,46,23.70
2009,09,15,16,47,23.70
2009,09,15,16,48,23.70
2009,09,15,16,49,23.70
2009,09,15,16,50,23.80
2009,09,15,16,51,23.80
2009,09,15,16,52,23.80
2009,09,15,16,53,23.90
2009,09,15,16,54,23.90
2009,09,15,16,55,23.90
2009,09,15,16,56,23.90
2009,09,15,16,57,23.90
2009,09,15,16,58,23.80
2009,09,15,16,59,23.80
2009,09,15,17,00,23.80
2009,09,15,17,01,23.70
2009,09,15,17,02,23.70
2009,09,15,17,03,23.70
2009,09,15,17,04,23.70
2009,09,15,17,05,23.60
2009,09,15,17,06,23.60
2009,09,15,17,07,23.50
2009,09,15,17,08,23.40
2009,09,15,17,09,23.40
2009,09,15,17,10,23.30
2009,09,15,17,11,23.30
2009,09,15,17,12,23.30
2009,09,15,17,13,23.30
2009,09,15,17,14,23.20
2009,09,15,17,15,23.20
2009,09,15,17,16,23.20
2009,09,15,17,17,23.20
2009,09,15,17,18,23.10
2009,09,15,17,19,23.10